{"data":{"norad_id":42749,"epoch":"2026-09-20T03:17:05.324352Z","epoch_age_seconds":57061,"freshness":"FRESH","line1":"1 42749U 17032A   26263.13686718  .00000063  00000+0  00000+0 0  9995","line2":"2 42749   1.7831   1.7396 0002468 182.3509 234.5011  1.00274373 34057","mean_motion":1.00274373,"eccentricity":0.0002468,"inclination_deg":1.7831,"raan_deg":1.7396,"arg_perigee_deg":182.3509,"mean_anomaly_deg":234.5011,"bstar":0,"rev_number":3405,"period_min":1436.0598395365,"perigee_km":35775.463389652,"apogee_km":35796.275543244,"semimajor_km":42164.006466448,"source":"CELESTRAK","updated_at":"2026-09-20T09:00:35.254598Z"}}